[[{"header":{"parameterUnit":"m.s-1","parameterCategory":1,"la1":30.2991,"la2":30.254,"lo1":-89.0895,"lo2":-89.0444,"dy":0.0017,"dx":0.0017,"nx":28,"ny":28,"refTime":"2023-08-26T03:00:00:Z","depth":0,"parameterNumber":2,"parameterNumberName":"U-component_of_WINDS"},"data":[0,0,0,0,0,0,0,0,0,0,0,0,0,0,0,0,0,0,0,0,0,0,0,0,0,0,0,0,0,0,0,0,0,0,0,0,0,0,0,0,0,0,0,0,0,0,0,0,0,0,0,0,0,0,0,0,0,0,1.5476,1.5477,0,1.5555,1.5556,1.5557,1.5574,1.5573,1.5572,1.5572,1.5652,1.5654,1.5657,0,0,0,0,0,0,0,0,0,0,0,0,0,1.5335,1.5338,1.5476,1.5477,1.5478,1.5555,1.5556,1.5557,1.5574,1.5573,1.5572,1.5572,1.5651,1.5654,1.5657,0,0,0,0,0,0,0,0,0,0,0,0,0,1.5403,1.5339,1.5475,1.5495,1.5498,1.5555,1.5556,1.5557,1.5574,1.5573,1.5572,1.5571,1.565,1.5653,1.5657,1.5699,0,0,1.567,1.5671,0,0,0,0,0,0,0,0,1.54,1.5409,1.5491,1.5494,1.5497,1.5554,1.5536,1.5605,1.5574,1.5545,1.5572,1.5571,1.5619,1.5626,1.5643,1.5703,1.5707,1.567,1.5672,1.5674,1.5675,0,0,0,0,0,0,0,1.5395,1.5405,1.5507,1.5493,1.5496,1.5499,1.5508,1.5549,1.5586,1.5547,1.5549,1.5558,1.5621,1.5639,1.5645,1.5708,1.567,1.5673,1.5676,1.5677,1.5804,1.5805,0,0,0,0,0,0,1.5387,1.5401,1.5504,1.5509,1.5445,1.5502,1.5512,1.5536,1.5586,1.5592,1.5559,1.5559,1.5632,1.564,1.5647,1.5698,1.5674,1.5678,1.568,1.5803,1.5804,1.5805,0,0,0,0,0,0,1.5384,1.5396,1.5501,1.5456,1.5469,1.5506,1.5533,1.5538,1.5556,1.5594,1.5601,1.557,1.5632,1.5642,1.5686,1.5701,1.568,1.5683,1.5802,1.5803,1.5804,1.5801,0,0,0,0,0,0,1.538,1.5395,1.5412,1.5456,1.5472,1.5539,1.5534,1.554,1.5563,1.5564,1.5607,1.5613,1.5632,1.568,1.569,1.5706,1.5686,1.58,1.5802,1.5804,1.58,1.5802,1.5804,0,0,0,0,0,1.5375,1.5408,1.5413,1.5425,1.5494,1.554,1.5549,1.557,1.5564,1.5581,1.5605,1.5612,1.5698,1.5684,1.5696,1.5713,1.58,1.5802,1.5804,1.5799,1.5801,1.5804,0,0,0,0,0,0,1.5365,1.5414,1.542,1.5469,1.55,1.5543,1.5565,1.5573,1.5606,1.5605,1.563,1.564,1.5682,1.5702,1.5686,1.5755,1.5748,1.5753,1.574,1.5743,1.5745,1.5739,1.569,0,0,0,0,0,1.5369,1.5403,1.5444,1.5482,1.5498,1.5529,1.5549,1.5563,1.5596,1.5609,1.5637,1.5668,1.5702,1.5724,1.5758,1.5803,1.5811,1.582,1.5822,1.5824,1.5827,1.585,1.5854,1.5812,1.5812,1.5812,0,0,1.5376,1.5407,1.5427,1.5481,1.5507,1.554,1.554,1.5576,1.56,1.5615,1.5658,1.5679,1.5715,1.5759,1.578,1.5778,1.5841,1.5827,1.5828,1.583,1.5853,1.5857,1.5861,1.5814,1.5813,1.5813,0,0,1.5407,1.5435,1.5469,1.5495,1.5534,1.5554,1.5562,1.5603,1.5617,1.5661,1.5672,1.5701,1.576,1.5784,1.5805,1.5842,1.5849,1.5852,1.5863,1.5885,1.5888,1.5891,1.5903,1.5907,1.5856,1.5856,1.5856,0,1.5411,1.5463,1.5486,1.5521,1.5543,1.5558,1.5592,1.5615,1.5663,1.5677,1.5674,1.5746,1.5772,1.5821,1.583,1.5846,1.5855,1.5847,1.5886,1.589,1.5893,1.5904,1.5909,1.5856,1.5856,1.5856,1.5856,0,1.5465,1.5501,1.5524,1.5569,1.5594,1.5629,1.5655,1.5677,1.5688,1.5708,1.5751,1.5782,1.5821,1.5834,1.5845,1.5884,1.5881,1.5882,1.5875,1.5896,1.5907,1.5912,1.5856,1.5856,1.5856,1.5856,0,0,1.5493,1.5549,1.5557,1.5577,1.562,1.5647,1.5681,1.572,1.5737,1.5769,1.5797,1.5845,1.5846,1.5869,1.5883,1.5902,1.5928,1.5901,1.5902,1.5903,1.597,1.5968,1.5973,1.5932,1.5933,1.5934,1.5966,0,1.5528,1.559,1.561,1.5661,1.5692,1.5706,1.5735,1.5764,1.5783,1.5812,1.5832,1.5865,1.5864,1.5878,1.5898,1.592,1.5941,1.5918,1.5957,1.5958,1.5947,1.5979,1.5978,1.6007,1.5971,1.5972,1.5972,0,1.5577,1.5609,1.5663,1.57,1.5714,1.574,1.5776,1.5804,1.5836,1.5848,1.5872,1.5885,1.5919,1.591,1.5957,1.5941,1.5958,1.5971,1.5972,1.5976,1.5966,1.5983,1.6017,1.6021,1.598,1.5979,1.5979,0,1.5589,1.5646,1.5685,1.5702,1.5747,1.5764,1.5784,1.5815,1.5836,1.5867,1.588,1.5915,1.5933,1.5959,1.5979,1.5971,1.6023,1.6017,1.6033,1.6032,1.6043,1.6042,1.6079,1.6055,1.6055,1.6055,1.6055,0,1.5625,1.5657,1.5691,1.5715,1.5751,1.5773,1.5807,1.5827,1.5855,1.5882,1.5895,1.592,1.5946,1.5974,1.599,1.6025,1.6033,1.6043,1.6047,1.6041,1.604,1.6052,1.605,1.6056,1.6056,1.6056,1.6056,0,1.5645,1.5669,1.5712,1.5751,1.5761,1.5786,1.5818,1.5841,1.586,1.5894,1.5903,1.5932,1.5965,1.5988,1.6031,1.6042,1.6079,1.6083,1.6068,1.607,1.6084,1.6082,1.613,1.6137,1.6109,1.611,1.611,0,1.5666,1.5691,1.5732,1.5751,1.577,1.5801,1.5822,1.5845,1.5866,1.5903,1.5921,1.5955,1.5983,1.6035,1.606,1.6092,1.6096,1.6111,1.6101,1.6094,1.6095,1.6093,1.6095,1.6112,1.6112,1.6113,1.6113,0,1.57,1.571,1.5741,1.5775,1.5799,1.5827,1.5855,1.587,1.5897,1.592,1.5954,1.5976,1.6019,1.6052,1.6086,1.6104,1.6112,1.6116,1.6121,1.6115,1.6105,1.6109,1.6071,1.6114,1.6114,1.6114,1.6114,1.6114,1.572,1.5742,1.5774,1.5806,1.5829,1.5855,1.5878,1.5899,1.5928,1.5965,1.5976,1.6011,1.604,1.6087,1.6106,1.6133,1.6132,1.614,1.6141,1.6143,1.6142,1.6101,1.6139,1.6139,1.6139,1.6139,1.6139,0,1.5753,1.5774,1.5804,1.5842,1.5867,1.5873,1.5904,1.5924,1.5955,1.5982,1.6009,1.6047,1.6079,1.6105,1.6138,1.6154,1.6158,1.6161,1.616,1.6164,1.6142,1.6133,1.6157,1.6157,1.6157,1.6157,1.6157,1.6157,1.5773,1.581,1.5824,1.5871,1.5892,1.5926,1.5943,1.5966,1.5987,1.6029,1.6056,1.6073,1.6099,1.6133,1.6162,1.6169,1.6179,1.6181,1.6189,1.6168,1.6166,1.6164,1.6156,1.6184,1.6184,1.6209,1.6209,1.6209]},{"header":{"parameterUnit":"m.s-1","parameterCategory":1,"la1":30.2991,"la2":30.254,"lo1":-89.0895,"lo2":-89.0444,"dy":0.0017,"dx":0.0017,"nx":28,"ny":28,"refTime":"2023-08-26T03:00:00:Z","depth":0,"parameterNumber":3,"parameterNumberName":"V-component_of_WINDS"},"data":[0,0,0,0,0,0,0,0,0,0,0,0,0,0,0,0,0,0,0,0,0,0,0,0,0,0,0,0,0,0,0,0,0,0,0,0,0,0,0,0,0,0,0,0,0,0,0,0,0,0,0,0,0,0,0,0,0,0,3.8067,3.8067,0,3.8069,3.8069,3.8069,3.8002,3.8,3.7998,3.7996,3.7997,3.7999,3.8,0,0,0,0,0,0,0,0,0,0,0,0,0,3.8005,3.8007,3.8067,3.8067,3.8067,3.8069,3.8069,3.8069,3.8002,3.8,3.7997,3.7995,3.7997,3.7999,3.8001,0,0,0,0,0,0,0,0,0,0,0,0,0,3.8022,3.8007,3.8067,3.8034,3.8031,3.8069,3.8069,3.8069,3.8002,3.8,3.7997,3.7994,3.7996,3.7998,3.8001,3.807,0,0,3.8009,3.801,0,0,0,0,0,0,0,0,3.8021,3.8024,3.8039,3.8037,3.8033,3.8032,3.8047,3.8069,3.8003,3.8013,3.7996,3.7993,3.8011,3.8012,3.8018,3.807,3.807,3.8009,3.801,3.8011,3.8012,0,0,0,0,0,0,0,3.802,3.8024,3.8068,3.8039,3.8036,3.8019,3.8018,3.8051,3.8027,3.8012,3.8007,3.8008,3.8009,3.8016,3.8018,3.807,3.8009,3.8011,3.8012,3.8013,3.8176,3.8179,0,0,0,0,0,0,3.8024,3.8024,3.8068,3.8068,3.8021,3.8022,3.8021,3.8035,3.8026,3.8023,3.8011,3.8005,3.8013,3.8015,3.8017,3.8096,3.8011,3.8014,3.8015,3.8174,3.8177,3.818,0,0,0,0,0,0,3.8023,3.8028,3.8068,3.8044,3.8048,3.8026,3.8042,3.8037,3.8044,3.8025,3.8021,3.8022,3.8011,3.8014,3.8057,3.8095,3.8015,3.8017,3.817,3.8175,3.8178,3.8255,0,0,0,0,0,0,3.8021,3.8028,3.8055,3.8046,3.805,3.8108,3.8044,3.8039,3.8048,3.8041,3.8035,3.8031,3.8009,3.8053,3.8059,3.8097,3.8019,3.8167,3.8172,3.8177,3.8249,3.8261,3.8272,0,0,0,0,0,3.8019,3.8077,3.8057,3.8062,3.8082,3.811,3.8112,3.8086,3.8052,3.8077,3.8066,3.8032,3.809,3.8058,3.8065,3.8104,3.8164,3.8171,3.8177,3.8244,3.8259,3.8272,0,0,0,0,0,0,3.8091,3.8075,3.8052,3.8109,3.8111,3.8099,3.8131,3.8103,3.8115,3.8108,3.8074,3.8073,3.8121,3.8117,3.8082,3.8169,3.8121,3.8129,3.817,3.8184,3.8195,3.8195,3.8021,0,0,0,0,0,3.8114,3.8138,3.8122,3.8173,3.8176,3.8153,3.8165,3.8144,3.8145,3.8146,3.8137,3.8139,3.8158,3.8171,3.8187,3.8248,3.8245,3.8278,3.829,3.8299,3.8306,3.8336,3.835,3.8201,3.8201,3.8201,0,0,3.816,3.8154,3.8172,3.8188,3.8187,3.8213,3.8155,3.8184,3.8202,3.815,3.819,3.8184,3.8184,3.8236,3.8258,3.8233,3.8347,3.8307,3.8315,3.8316,3.8344,3.8358,3.8371,3.8205,3.8204,3.8204,0,0,3.8258,3.8256,3.8298,3.8298,3.8298,3.8283,3.8293,3.8284,3.8278,3.8317,3.8278,3.8299,3.8333,3.8334,3.8339,3.8436,3.8405,3.8442,3.8502,3.8532,3.8543,3.8554,3.8587,3.8599,3.8449,3.845,3.845,0,3.8315,3.8352,3.8323,3.8354,3.8362,3.8315,3.8356,3.8358,3.8364,3.837,3.8343,3.8382,3.838,3.843,3.8454,3.846,3.847,3.8442,3.8544,3.8554,3.8563,3.8594,3.8607,3.8454,3.8453,3.8453,3.8453,0,3.8422,3.8448,3.8482,3.8487,3.8499,3.8535,3.8511,3.8526,3.8504,3.8491,3.8531,3.8525,3.8539,3.855,3.8529,3.8597,3.8582,3.855,3.8501,3.8582,3.8611,3.8623,3.846,3.8459,3.8457,3.8456,0,0,3.8565,3.8553,3.8566,3.8567,3.8563,3.8582,3.8616,3.863,3.8642,3.8648,3.8674,3.8703,3.8673,3.8679,3.8658,3.8685,3.876,3.8649,3.8648,3.8668,3.8833,3.8856,3.887,3.8739,3.8742,3.8743,3.8832,0,3.8658,3.8715,3.8689,3.8748,3.8771,3.8727,3.8756,3.8756,3.8745,3.8763,3.875,3.8771,3.873,3.8733,3.8758,3.8745,3.8792,3.8739,3.8763,3.8764,3.8763,3.8885,3.891,3.8994,3.8844,3.8845,3.8847,0,3.8774,3.8783,3.8845,3.8835,3.8844,3.8871,3.888,3.8897,3.8897,3.8887,3.8893,3.8865,3.8897,3.8849,3.8892,3.8856,3.8864,3.886,3.8862,3.8863,3.8809,3.8887,3.9021,3.9033,3.8864,3.8863,3.8862,0,3.887,3.8898,3.8938,3.894,3.8931,3.895,3.8947,3.8944,3.8953,3.8961,3.8967,3.8979,3.8985,3.8995,3.8971,3.8939,3.9017,3.8967,3.9008,3.9009,3.9025,3.9024,3.9161,3.9034,3.9033,3.9033,3.9033,0,3.8975,3.9014,3.898,3.9005,3.9047,3.9016,3.9059,3.9051,3.9048,3.907,3.9033,3.9054,3.9022,3.904,3.9021,3.9058,3.9062,3.9054,3.9048,3.9057,3.9057,3.9061,3.9054,3.9037,3.9036,3.9035,3.9035,0,3.9089,3.9068,3.9108,3.9095,3.9093,3.9125,3.9113,3.9135,3.9121,3.9149,3.9154,3.9132,3.9151,3.9128,3.9146,3.9133,3.9183,3.917,3.9184,3.9179,3.9221,3.9217,3.9363,3.938,3.9243,3.9245,3.9246,0,3.9157,3.9186,3.9176,3.9187,3.9186,3.9206,3.9215,3.9186,3.9197,3.9197,3.9219,3.9235,3.9245,3.9278,3.9263,3.9276,3.9262,3.9312,3.9263,3.927,3.9261,3.9259,3.9261,3.9321,3.9323,3.9324,3.9326,0,3.928,3.9267,3.9281,3.9292,3.9303,3.931,3.9314,3.9326,3.9296,3.9309,3.9328,3.9337,3.9354,3.9369,3.9378,3.9374,3.9345,3.9341,3.9351,3.9359,3.9365,3.9361,3.9209,3.9338,3.9336,3.9336,3.9335,3.9334,3.9371,3.9394,3.939,3.9407,3.9407,3.9411,3.943,3.9419,3.9434,3.9445,3.9427,3.945,3.9447,3.9456,3.9456,3.9473,3.9451,3.9466,3.947,3.9473,3.9479,3.9363,3.9475,3.9474,3.9474,3.9474,3.9473,0,3.949,3.9485,3.9501,3.9507,3.952,3.9491,3.9494,3.9507,3.9527,3.9527,3.9539,3.956,3.9574,3.9561,3.9573,3.959,3.9576,3.9594,3.9592,3.9591,3.9498,3.9488,3.9604,3.9604,3.9604,3.9604,3.9604,3.9604,3.9554,3.959,3.9578,3.9613,3.9608,3.963,3.9634,3.9637,3.9637,3.9662,3.9674,3.9665,3.966,3.9671,3.9683,3.9679,3.9684,3.9706,3.9697,3.9611,3.9598,3.9585,3.9575,3.9708,3.9708,3.9788,3.9789,3.9789]}]]